Showing default

TEMPSAT 1, 1512

Orbit data source: Space-Track

TEMPSAT 1, 1512 is a payload satellite owned by NRL (US) in LEO that was launched on Fri, 13 Aug 1965 UTC via a THOR ABLESTAR launch vehicle from the Air Force Western Test Range (AFWTR). Payload-class satellites include a variety of spacecraft equipped with specific instruments for various scientific and technological missions. These include communications satellites like Starlink; space stations such as the ISS; scientific satellites like the Hubble; Earth observation satellites from companies like Planet Labs, Umbra, and HawkEye 360; GPS; miniature CubeSats for education and research; and military/defense satellites.

Loading next visibility...
Identifier
1512, 1965-065E
Orbit
LEO
Country
Flag of USUS
Related business
Manufacturer
NRL
Mission
Operational spacecraft
Bus & Motor
NRL 14", Unknown motor
Mass
9 kg wet, 9 kg dry
Launch date (UTC)
1965-08-13 (60 years ago)
Launch vehicle
THOR ABLESTAR
Launch site
Air Force Western Test Range (AFWTR)
Object type
Payload
Rocket body
Debris
Shape & HBR
Unknown
Radar Cross Section
Small (<0.1 m²)

Expand to show TLE details & history
Last TLE update: 14 hours ago

TLE from 14 hours ago
0 TEMPSAT 1
1 01512U 65065E   25353.15464659  .00000064  00000-0  10974-3 0  9993
2 01512  89.9874 212.6622 0070710  35.4465  89.7225 13.33582923936054
Epoch: 2025-12-19T03:42Z
TLE epoch observation values (Epoch: 2025-12-19T03:42:41.465Z)
Latitude
54.11406°
Longitude
-111.02777°
Altitude
1,142.366 km
Speed
7.287 km/s
True Right ascension
02h 10m 34s
True Declination
53° 57' 32"
Sunlit
Object was in full shadow at epoch
Visualization orbit readout
Latitude
Unknown
Longitude
Unknown
Altitude
Unknown
Speed
Unknown
Apparent Right ascension
Unknown
Apparent Declination
Unknown
Sunlit
N/A
Visualization observer readout
Local Sidereal Time
16:37:10
Azimuth
Unknown
Elevation
Unknown
Doppler factor
Unknown
Orbital elements
Apogee altitude
1,183.445 km
Perigee altitude
1,077.26 km
Semi-major axis
7,508.49 km
Eccentricity
0.00707
Inclination
89.9874°
RAAN
212.6622°
Arg. of periapsis
35.4465°
True anomaly
90.53278°
Mean anomaly
89.7225°
Eccentric anomaly
90.12764°
Mean motion
3.33591 °/min
Orbital period
107.92 mins
BSTAR
0.00010974
Loading maneuver chart data...
Computing Atmospheric mass density...
Loading historical data...
Loading historical data...
Loading historical data...
Loading historical data...
Loading historical data...
Loading historical data...
Loading historical data...

Documentation

Showing up to 5 results
|